Regional Weather Roundup
Issued by NWS

Home | Current Version | Previous Version | Graphics & Text | Print | Product List | Glossary On
Versions: 1 2 3 4 5 6 7 8 9 10 11 12 13 14 15 16 17 18 19 20 21 22 23 24 25 26 27 28 29 30 31 32 33 34 35 36 37 38 39 40 41 42 43 44 45 46 47 48 49 50
579
ASUS43 KTOP 150208
RWRKS

WEATHER ROUNDUP FOR KANSAS
NATIONAL WEATHER SERVICE GOODLAND KS
800 PM CST THU DEC 14 2017

NOTE:  "FAIR" INDICATES FEW OR NO CLOUDS BELOW 12,000 FEET WITH NO
SIGNIFICANT WEATHER AND/OR OBSTRUCTIONS TO VISIBILITY.

KSZ001>006-013>018-027>032-041>047-150300-
NORTHWEST KANSAS

CITY           SKY/WX    TMP DP  RH WIND       PRES   REMARKS
GOODLAND       CLOUDY    30  21  69 NW12      30.22R WCI  20
HILL CITY      CLOUDY    36  25  64 NW8       30.22R
RUSSELL        PTCLDY    35  30  82 N14       30.18R WCI  26
$$

KSZ061>065-074>080-084>089-150300-
SOUTHWEST KANSAS

CITY           SKY/WX    TMP DP  RH WIND       PRES   REMARKS
DODGE CITY     PTCLDY    33  26  75 NW8       30.21R
ELKHART        CLEAR     35  33  94 NW10      30.26R WCI  27
GARDEN CITY    PTCLDY    30  23  75 NW12      30.23R WCI  20
GREAT BEND     PTCLDY    37  28  70 N10       30.20R WCI  30
LIBERAL        CLEAR     29  23  78 NW10      30.25R WCI  20
PRATT          CLEAR     37  26  67 N17       30.19R WCI  27
$$

KSZ066>073-081>083-090>101-150300-
SOUTHEAST KANSAS

CITY           SKY/WX    TMP DP  RH WIND       PRES   REMARKS
CHANUTE        CLOUDY    40  27  59 SW3       30.12R
COFFEYVILLE    CLOUDY    39  28  64 S5        30.14S
HUTCHINSON     MOCLDY    41  33  73 N13       30.16R
MEDICINE LODGE   N/A     37  29  72 NW5       30.18R
NEWTON         CLOUDY    42  33  70 NW14      30.14R
PARSONS        CLOUDY    37  29  72 CALM      30.14R
WICHITA INTL   CLOUDY    46  34  62 NW14      30.15R
WICHITA JABRA  CLOUDY    44  34  67 NW17      30.14R
WICHITA MCCONL CLOUDY    45  31  59 N9        30.14R
WINFIELD       CLOUDY    42  28  57 NW5       30.15R
$$

KSZ007>012-019>026-033>040-048>060-102>105-150300-
NORTHEAST KANSAS

CITY           SKY/WX    TMP DP  RH WIND       PRES   REMARKS
CONCORDIA      CLOUDY    38  35  89 NW9       30.16R
EMPORIA        CLOUDY    41  29  62 NW7       30.12R
LAWRENCE       CLOUDY    37  28  70 NW3       30.12R
MANHATTAN      CLOUDY    41  33  73 VRB5      30.15R
MARYSVILLE     CLOUDY    34  32  93 NW6       30.14R
OLATHE IND     CLOUDY    36  26  67 S3        30.12R
OLATHE EXE     CLOUDY    36  26  67 CALM      30.11R
SALINA         CLOUDY    42  35  76 NW17      30.17R
TOPEKA BILLARD CLOUDY    42  32  67 NW10      30.12R
TOPEKA FORBES  CLOUDY    43  31  62 NW13      30.12R
$$




USA.gov is the U.S. government's official web portal to all federal, state and local government web resources and services.